[[{"header":{"parameterUnit":"m.s-1","parameterCategory":1,"la1":30.2991,"la2":30.254,"lo1":-89.0895,"lo2":-89.0444,"dy":0.0017,"dx":0.0017,"nx":28,"ny":28,"refTime":"2024-04-12T03:00:00:Z","depth":0,"parameterNumber":2,"parameterNumberName":"U-component_of_WINDS"},"data":[0,0,0,0,0,0,0,0,0,0,0,0,0,0,0,0,0,0,0,0,0,0,0,0,0,0,0,0,0,0,0,0,0,0,0,0,0,0,0,0,0,0,0,0,0,0,0,0,0,0,0,0,0,0,0,0,0,0,6.46,6.4602,0,6.4758,6.4759,6.4761,6.4745,6.4743,6.474,6.4738,6.49,6.4906,6.4912,0,0,0,0,0,0,0,0,0,0,0,0,0,6.4289,6.4295,6.46,6.4602,6.4604,6.4757,6.4759,6.4762,6.4746,6.4743,6.474,6.4737,6.4897,6.4905,6.4913,0,0,0,0,0,0,0,0,0,0,0,0,0,6.4433,6.4297,6.46,6.4615,6.4618,6.4757,6.4759,6.4762,6.4746,6.4743,6.4739,6.4735,6.4895,6.4904,6.4914,6.5049,0,0,6.4944,6.4949,0,0,0,0,0,0,0,0,6.4425,6.4445,6.4611,6.4614,6.4617,6.4728,6.4709,6.4858,6.4747,6.4697,6.4738,6.4734,6.4845,6.4859,6.4897,6.5056,6.5063,6.4945,6.4951,6.4955,6.4958,0,0,0,0,0,0,0,6.4415,6.4438,6.4662,6.4613,6.4617,6.4614,6.4631,6.4737,6.479,6.4701,6.4701,6.472,6.4847,6.4887,6.49,6.5066,6.4945,6.4954,6.496,6.4964,6.5348,6.5352,0,0,0,0,0,0,6.4401,6.443,6.4657,6.4667,6.451,6.4623,6.4641,6.4696,6.4789,6.48,6.4722,6.4718,6.4872,6.4889,6.4906,6.5072,6.4955,6.4965,6.497,6.5344,6.5349,6.5353,0,0,0,0,0,0,6.4395,6.4422,6.4651,6.4548,6.4577,6.4632,6.4694,6.4701,6.4742,6.4805,6.4814,6.4754,6.487,6.4892,6.5014,6.5078,6.4969,6.4978,6.5339,6.5345,6.5351,6.5404,0,0,0,0,0,0,6.4386,6.442,6.447,6.455,6.4583,6.4756,6.4698,6.4707,6.4759,6.4755,6.4837,6.4847,6.4869,6.5,6.5024,6.5089,6.4986,6.5333,6.5342,6.5349,6.5397,6.5412,6.5424,0,0,0,0,0,6.4375,6.4478,6.4473,6.4501,6.4647,6.476,6.4779,6.4801,6.4764,6.4816,6.4858,6.4845,6.5067,6.5012,6.504,6.5109,6.5329,6.5339,6.5348,6.5391,6.5409,6.5424,0,0,0,0,0,0,6.4404,6.4489,6.4484,6.4616,6.4681,6.4757,6.4823,6.4819,6.4896,6.4888,6.4914,6.4932,6.5056,6.5095,6.5032,6.5246,6.5193,6.5209,6.5216,6.5234,6.5247,6.5235,6.4994,0,0,0,0,0,6.4427,6.451,6.4579,6.4689,6.4722,6.4767,6.4817,6.4829,6.4897,6.4925,6.4974,6.5041,6.5127,6.5182,6.5264,6.5403,6.5422,6.5464,6.5478,6.5489,6.5502,6.5582,6.5602,6.5385,6.5385,6.5385,0,0,6.4473,6.4529,6.458,6.4697,6.4749,6.4836,6.479,6.4884,6.4949,6.4939,6.5058,6.5097,6.5174,6.5306,6.5366,6.5342,6.5566,6.5501,6.5509,6.5517,6.5594,6.5614,6.5632,6.5392,6.539,6.5389,0,0,6.4602,6.4652,6.475,6.4804,6.4883,6.4913,6.4937,6.5014,6.504,6.516,6.5155,6.5234,6.5379,6.5435,6.5482,6.5637,6.5629,6.5663,6.5733,6.5811,6.5828,6.5843,6.59,6.592,6.5676,6.5676,6.5676,0,6.4649,6.4779,6.4802,6.4897,6.495,6.4945,6.5047,6.5097,6.5199,6.5236,6.5207,6.5392,6.5443,6.559,6.5628,6.5666,6.5695,6.5653,6.5823,6.5839,6.5854,6.5909,6.593,6.5679,6.5679,6.5679,6.5678,0,6.4835,6.4926,6.4996,6.5096,6.5156,6.5254,6.5293,6.5352,6.5359,6.5393,6.5517,6.5578,6.5674,6.5709,6.5717,6.5859,6.5841,6.5818,6.5765,6.5878,6.593,6.5951,6.5685,6.5683,6.5682,6.5681,0,0,6.4985,6.5098,6.5124,6.517,6.5259,6.533,6.5429,6.5523,6.5574,6.5645,6.573,6.5855,6.5835,6.5889,6.5903,6.5971,6.6092,6.594,6.5942,6.5967,6.6255,6.6273,6.6297,6.6088,6.6092,6.6095,6.6249,0,6.5125,6.5299,6.5323,6.5478,6.5564,6.5563,6.5649,6.5714,6.5748,6.5827,6.5865,6.5955,6.592,6.5953,6.602,6.6063,6.6151,6.6052,6.6168,6.6172,6.615,6.6323,6.6342,6.6484,6.6269,6.6273,6.6275,0,6.5309,6.5387,6.5551,6.5631,6.5667,6.5744,6.5834,6.5909,6.5983,6.6004,6.6066,6.6073,6.6178,6.6121,6.6266,6.6199,6.6248,6.6277,6.6283,6.6296,6.6231,6.6342,6.653,6.6552,6.6307,6.6305,6.6302,0,6.5405,6.5551,6.5668,6.5708,6.5803,6.5858,6.59,6.5971,6.6027,6.6106,6.6143,6.6233,6.6282,6.6353,6.6385,6.634,6.6529,6.6474,6.6551,6.655,6.6591,6.6588,6.6791,6.6621,6.662,6.662,6.6619,0,6.5559,6.5659,6.5713,6.5785,6.5899,6.5927,6.6039,6.608,6.6143,6.6225,6.6229,6.6306,6.6343,6.6425,6.6451,6.6569,6.6591,6.6612,6.6618,6.6613,6.661,6.6646,6.6637,6.6626,6.6624,6.6623,6.6622,0,6.5685,6.5725,6.5853,6.5934,6.5957,6.6037,6.6107,6.6178,6.6213,6.6316,6.6342,6.6397,6.6495,6.6534,6.6654,6.6671,6.6808,6.6805,6.6783,6.6785,6.686,6.6853,6.7094,6.7128,6.6934,6.6935,6.6937,0,6.5781,6.5858,6.5948,6.6003,6.6048,6.6136,6.6194,6.6225,6.6286,6.6378,6.6439,6.6537,6.6617,6.6774,6.6825,6.6918,6.6919,6.6997,6.6932,6.6926,6.6922,6.6918,6.6927,6.7008,6.701,6.7012,6.7013,0,6.5947,6.5964,6.6046,6.6138,6.6207,6.628,6.6351,6.6396,6.6439,6.6507,6.6607,6.667,6.6793,6.6891,6.6987,6.7032,6.7031,6.7033,6.7056,6.7052,6.7037,6.7048,6.6817,6.7028,6.7026,6.7025,6.7024,6.7024,6.6063,6.6133,6.6208,6.6301,6.6358,6.6425,6.6497,6.6542,6.6626,6.6729,6.6743,6.6851,6.6927,6.7056,6.7105,6.7192,6.7171,6.7204,6.7213,6.722,6.7227,6.7022,6.7209,6.7209,6.7208,6.7208,6.7208,0,6.6231,6.628,6.6365,6.6465,6.654,6.6532,6.6611,6.6674,6.6769,6.684,6.6919,6.7037,6.7133,6.7193,6.729,6.7348,6.735,6.7372,6.7369,6.738,6.7238,6.7209,6.7369,6.7369,6.7369,6.7369,6.7369,6.7369,6.6327,6.6447,6.6472,6.6621,6.6669,6.6776,6.6822,6.6885,6.6942,6.7072,6.7152,6.7191,6.7258,6.7361,6.745,6.7465,6.7501,6.7526,6.754,6.7406,6.7389,6.7374,6.7347,6.7533,6.7533,6.7675,6.7676,6.7677]},{"header":{"parameterUnit":"m.s-1","parameterCategory":1,"la1":30.2991,"la2":30.254,"lo1":-89.0895,"lo2":-89.0444,"dy":0.0017,"dx":0.0017,"nx":28,"ny":28,"refTime":"2024-04-12T03:00:00:Z","depth":0,"parameterNumber":3,"parameterNumberName":"V-component_of_WINDS"},"data":[0,0,0,0,0,0,0,0,0,0,0,0,0,0,0,0,0,0,0,0,0,0,0,0,0,0,0,0,0,0,0,0,0,0,0,0,0,0,0,0,0,0,0,0,0,0,0,0,0,0,0,0,0,0,0,0,0,0,-5.584,-5.5841,0,-5.5937,-5.5939,-5.594,-5.5942,-5.594,-5.5939,-5.5938,-5.6034,-5.6038,-5.6042,0,0,0,0,0,0,0,0,0,0,0,0,0,-5.5655,-5.5659,-5.584,-5.5841,-5.5843,-5.5937,-5.5939,-5.594,-5.5942,-5.594,-5.5939,-5.5937,-5.6033,-5.6038,-5.6042,0,0,0,0,0,0,0,0,0,0,0,0,0,-5.5742,-5.566,-5.584,-5.5855,-5.5857,-5.5937,-5.5939,-5.594,-5.5942,-5.594,-5.5938,-5.5937,-5.6032,-5.6037,-5.6043,-5.6113,0,0,-5.6059,-5.6062,0,0,0,0,0,0,0,0,-5.5737,-5.5749,-5.5852,-5.5854,-5.5857,-5.5926,-5.5909,-5.5998,-5.5943,-5.591,-5.5938,-5.5936,-5.5999,-5.6007,-5.603,-5.6117,-5.6121,-5.606,-5.6063,-5.6066,-5.6067,0,0,0,0,0,0,0,-5.5731,-5.5745,-5.5879,-5.5853,-5.5856,-5.5857,-5.5867,-5.5926,-5.5963,-5.5912,-5.5913,-5.5925,-5.6,-5.6024,-5.6032,-5.6123,-5.606,-5.6065,-5.6068,-5.607,-5.6276,-5.6278,0,0,0,0,0,0,-5.5722,-5.574,-5.5875,-5.5881,-5.5792,-5.5861,-5.5873,-5.5905,-5.5963,-5.597,-5.5926,-5.5924,-5.6016,-5.6025,-5.6035,-5.6123,-5.6066,-5.6071,-5.6074,-5.6273,-5.6276,-5.6278,0,0,0,0,0,0,-5.5718,-5.5735,-5.5872,-5.5811,-5.5828,-5.5867,-5.5903,-5.5908,-5.5932,-5.5973,-5.598,-5.5943,-5.6015,-5.6027,-5.6094,-5.6126,-5.6073,-5.6078,-5.6271,-5.6274,-5.6277,-5.6297,0,0,0,0,0,0,-5.5713,-5.5733,-5.576,-5.5811,-5.5832,-5.5929,-5.5905,-5.5911,-5.5942,-5.5941,-5.5991,-5.5998,-5.6014,-5.6086,-5.61,-5.6133,-5.6083,-5.6268,-5.6272,-5.6276,-5.6294,-5.6301,-5.6307,0,0,0,0,0,-5.5707,-5.5761,-5.5761,-5.5778,-5.5866,-5.5931,-5.5942,-5.5961,-5.5944,-5.5972,-5.5999,-5.5996,-5.6121,-5.6093,-5.6108,-5.6143,-5.6266,-5.6271,-5.6276,-5.6291,-5.6299,-5.6307,0,0,0,0,0,0,-5.571,-5.5767,-5.5769,-5.5841,-5.5882,-5.5931,-5.5966,-5.5969,-5.6014,-5.6011,-5.6031,-5.6043,-5.611,-5.6133,-5.6101,-5.6216,-5.6191,-5.62,-5.6198,-5.6206,-5.6212,-5.6205,-5.6087,0,0,0,0,0,-5.572,-5.5768,-5.5815,-5.5875,-5.5895,-5.5927,-5.5956,-5.5968,-5.601,-5.6026,-5.6058,-5.6098,-5.6146,-5.6177,-5.6224,-5.6298,-5.6309,-5.633,-5.6336,-5.6341,-5.6348,-5.639,-5.64,-5.6294,-5.6294,-5.6294,0,0,-5.5739,-5.5777,-5.5805,-5.5877,-5.5909,-5.5959,-5.5941,-5.5994,-5.6031,-5.6034,-5.6099,-5.6124,-5.617,-5.6242,-5.6275,-5.6263,-5.638,-5.6347,-5.6351,-5.6355,-5.6396,-5.6406,-5.6415,-5.6297,-5.6297,-5.6296,0,0,-5.58,-5.5833,-5.5887,-5.5921,-5.5971,-5.5993,-5.6006,-5.6056,-5.6073,-5.614,-5.6144,-5.6188,-5.627,-5.6304,-5.6332,-5.6409,-5.6409,-5.6424,-5.6456,-5.6498,-5.6506,-5.6514,-5.6542,-5.6552,-5.643,-5.643,-5.643,0,-5.5818,-5.5893,-5.5914,-5.5968,-5.6,-5.6007,-5.6062,-5.6093,-5.6155,-5.6177,-5.6164,-5.627,-5.6301,-5.6381,-5.6401,-5.6423,-5.6439,-5.6417,-5.6504,-5.6511,-5.6519,-5.6546,-5.6557,-5.6432,-5.6432,-5.6432,-5.6431,0,-5.5913,-5.5966,-5.6003,-5.6066,-5.6102,-5.6155,-5.6185,-5.6219,-5.6228,-5.6251,-5.632,-5.6359,-5.6414,-5.6434,-5.6442,-5.6516,-5.6508,-5.6499,-5.6475,-5.653,-5.6556,-5.6567,-5.6434,-5.6434,-5.6433,-5.6433,0,0,-5.5977,-5.6053,-5.6066,-5.6095,-5.6153,-5.6194,-5.6249,-5.6305,-5.6334,-5.6377,-5.6424,-5.6496,-5.6489,-5.6521,-5.6533,-5.657,-5.663,-5.6557,-5.6558,-5.6569,-5.6715,-5.6722,-5.6734,-5.6631,-5.6633,-5.6635,-5.6712,0,-5.6045,-5.6144,-5.6166,-5.6251,-5.6301,-5.6309,-5.6358,-5.6398,-5.6422,-5.6467,-5.6493,-5.6544,-5.6531,-5.655,-5.6587,-5.6615,-5.666,-5.661,-5.6675,-5.6677,-5.6663,-5.6747,-5.6754,-5.6824,-5.6722,-5.6724,-5.6725,0,-5.6136,-5.6184,-5.6275,-5.6328,-5.635,-5.6393,-5.6448,-5.6491,-5.6537,-5.6552,-5.659,-5.6599,-5.6657,-5.6631,-5.6712,-5.6678,-5.6706,-5.6724,-5.6728,-5.6734,-5.6704,-5.6756,-5.6847,-5.6858,-5.6741,-5.674,-5.6739,0,-5.6175,-5.6262,-5.6328,-5.6353,-5.6416,-5.6447,-5.6475,-5.652,-5.6553,-5.66,-5.6622,-5.6675,-5.6704,-5.6745,-5.6769,-5.6748,-5.6849,-5.6824,-5.6863,-5.6863,-5.6883,-5.6882,-5.6981,-5.6901,-5.6901,-5.6901,-5.6901,0,-5.6248,-5.6304,-5.6347,-5.6387,-5.645,-5.6476,-5.6537,-5.6564,-5.6605,-5.6652,-5.6662,-5.6705,-5.6734,-5.6782,-5.6801,-5.6866,-5.6878,-5.6892,-5.6897,-5.6892,-5.689,-5.691,-5.6906,-5.6904,-5.6903,-5.6903,-5.6902,0,-5.6301,-5.6333,-5.6406,-5.6461,-5.6476,-5.652,-5.6567,-5.6607,-5.6633,-5.6691,-5.6706,-5.6746,-5.6802,-5.6831,-5.6901,-5.6914,-5.6987,-5.6988,-5.6972,-5.6974,-5.7011,-5.7007,-5.7126,-5.7144,-5.7053,-5.7053,-5.7054,0,-5.6346,-5.6389,-5.645,-5.6483,-5.6512,-5.6564,-5.6599,-5.6626,-5.6661,-5.672,-5.6753,-5.6811,-5.6858,-5.6948,-5.6983,-5.7037,-5.704,-5.7078,-5.7048,-5.7042,-5.7041,-5.7038,-5.7043,-5.7083,-5.7084,-5.7084,-5.7085,0,-5.6422,-5.6437,-5.6487,-5.6543,-5.6585,-5.663,-5.6675,-5.6701,-5.6735,-5.6775,-5.6834,-5.6871,-5.6944,-5.7002,-5.7059,-5.7087,-5.7092,-5.7094,-5.7106,-5.7101,-5.709,-5.7098,-5.6987,-5.7091,-5.7091,-5.709,-5.709,-5.7089,-5.6473,-5.6513,-5.6563,-5.6619,-5.6656,-5.6698,-5.6739,-5.6771,-5.6821,-5.6884,-5.6897,-5.696,-5.7007,-5.7085,-5.7116,-5.7165,-5.7157,-5.7174,-5.7178,-5.7182,-5.7184,-5.7083,-5.7176,-5.7175,-5.7175,-5.7175,-5.7175,0,-5.6551,-5.6584,-5.6636,-5.6699,-5.6744,-5.6746,-5.6797,-5.6834,-5.6889,-5.6934,-5.6982,-5.7051,-5.7107,-5.7147,-5.7205,-5.7237,-5.7241,-5.7251,-5.7249,-5.7256,-5.7188,-5.7172,-5.7247,-5.7247,-5.7247,-5.7247,-5.7247,-5.7247,-5.6596,-5.6664,-5.6685,-5.6772,-5.6804,-5.6867,-5.6896,-5.6935,-5.6972,-5.7049,-5.7096,-5.7123,-5.7166,-5.7228,-5.728,-5.729,-5.7311,-5.7322,-5.7332,-5.7268,-5.726,-5.7253,-5.7238,-5.7326,-5.7326,-5.7396,-5.7396,-5.7397]}]]